835  
ASUS41 KALY 171110  
RWRALY  
 
NEW YORK STATE HOURLY WEATHER ROUNDUP  
NATIONAL WEATHER SERVICE ALBANY NY  
700 AM EDT WED OCT 17 2018  
 
NOTE: "FAIR" INDICATES FEW OR NO CLOUDS BELOW 12,000 FEET WITH NO  
SIGNIFICANT WEATHER AND/OR NO S TO VISIBILITY
.  
 
NYZ032-033-038>043-046>054-057>066-NYZ062>081-082-084-171200-  
EAST  
 
 
CITY SKY/WX TMP DP RH WIND PRES REMARKS
 
ALBANY CLOUDY 43 36 76 S7 29.92S  
GLENS FALLS CLOUDY 40 37 89 S10 29.87F WCI 33  
POUGHKEEPSIE FAIR 43 35 73 SW7 29.95F  
NEWBURGH PTCLDY 39 37 93 CALM 29.97S  
MONTGOMERY FAIR 37 35 92 SW5 29.95F WCI 33  
WHITE PLAINS FAIR 43 36 76 W3 29.97S  
ISLIP MOCLDY 44 40 85 W8 29.98F  
NEW YORK CITY FAIR 51 37 58 SW10 29.99F  
CENTRAL PARK FAIR 48 39 71 MISG 30.02F  

 
 
NYZ005>009-017-018-044>046-055-056-171200-  
CENTRAL  
 
 
CITY SKY/WX TMP DP RH WIND PRES REMARKS
 
FULTON CLOUDY 48 35 60 S8 29.84S  
SYRACUSE MOCLDY 47 36 65 SW12 29.85S  
ROME CLOUDY 42 41 96 E6 29.87F  
ELMIRA MOCLDY 37 33 85 CALM 29.92R  
BINGHAMTON CLOUDY 40 33 76 SW7 29.89F  
MONTICELLO MOCLDY 34 32 92 SE3 29.94F  

 
 
NYZ026>034-041>043-087-171200-  
NORTH  
 
 
CITY SKY/WX TMP DP RH WIND PRES REMARKS
 
WATERTOWN MOCLDY 49 39 68 W17 29.79S  
FORT DRUM NOT AVBL  
OGDENSBURG MOCLDY 49 37 64 SW8 29.76S  
MASSENA CLOUDY 47 40 76 SW10G20 29.75S  
SARANAC LAKE LGT RAIN 39 38 96 SW12 29.75F WCI 32  
PLATTSBURGH CLOUDY 47 36 65 S7 29.76F  

 
 
NYZ001>004-010>016-019>021-085-171200-  
WEST  
 
 
CITY SKY/WX TMP DP RH WIND PRES REMARKS
 
NIAGARA FALLS CLOUDY 48 34 58 W16 29.86S  
BUFFALO MOCLDY 49 36 61 W13G23 29.87R  
DUNKIRK MOCLDY 47 40 76 SW13 29.90S  
JAMESTOWN MOCLDY 40 34 79 SW15G22 29.93R WCI 32  
WELLSVILLE FAIR 39 34 82 SW13G18 29.91S WCI 31  
ROCHESTER FAIR 46 40 79 SW12 29.86R  
PENN YAN CLOUDY 46 36 68 S10G18 29.88S  

 
 
KEY  
WCI = WIND CHILL INDEX  
VSB = VISIBILITY  
HX = HEAT INDEX  

 
 
 
CLICK HERE TO GO TO PREVIOUS BULLETINS.

The Nexlab NY Page
The Nexlab VT Page
The Nexlab MA Page
The Nexlab CT Page Main Text Page